Find EXO-0

NORAD ID: 59175 Int'l Des: 2023-174 Owner: EXOTR Country: F operational
LEOCIRCULARRETROGRADESSO

リアルタイム位置

3D地球を読み込み中...

EXO-0について

説明を読み込み中...

次回通過

Passes for default location (London). Set your location on the main map for personalized predictions.

高度履歴

Loading altitude history...

軌道要素

1 59175U 23174DK 26106.95450729 .00005793 00000-0 18033-3 0 9992
2 59175 97.3835 187.1097 0009672 37.8299 322.3621 15.33639624135650
Epoch: Apr 16, 2026 • Age: 6 hours

現在のステータス

高度 486.2 km
速度 7.62 km/s
衛星直下点 -38.16°S, 87.89°E
打ち上げ日 Nov 11, 2023
運用期間 2.4 years
タイプ other

技術仕様

分類 Payload
質量 20.00 kg
乾燥質量 20.00 kg
総質量 20.00 kg
長さ 0.40 m
直径 0.10 m
スパン 0.40 m
形状 Box
製造者 ENDUR
バスタイプ Cubesat 8U
フェーズステータス In Orbit
所有者/国 EXOTR/F

Most Searched